Volver al catálogo

CZ-6A DEB

ActivoPO
NORAD 61311·DEBRIS·🇨🇳 China

Lanzado Aug 6, 2024 desde Taiyuan Satellite Launch Center

Loading…

Próximos Pases (próximas 24 horas)

TLE

ActualizadoSource: Space-Track

Época: Sep 14, 2026, 11:32 UTC

1 61311U 24140TY  26257.48116032  .00002231  00000-0  24579-3 0  9998
2 61311  89.1120 268.0548 0156660 229.1671 129.5884 14.78565136110128

Sigue CZ-6A DEB en tiempo real con AllMySat

Download on the App Store